Time,TemperatureF,DewpointF,PressureIn,WindDirection,WindDirectionDegrees,WindSpeedMPH,WindSpeedGustMPH,Humidity,HourlyPrecipIn,Conditions,Clouds,dailyrainin,SoftwareType,DateUTC
2013-07-10 00:00:00,71.5,69.4,29.81,SW,225,0.0,3.0,93,0.00,,---,0.00,VWS V14.00,2013-07-10 04:00:00,
2013-07-10 00:01:00,71.5,69.4,29.81,WSW,250,6.0,6.0,93,0.00,,---,0.00,VWS V14.00,2013-07-10 04:01:00,
2013-07-10 00:02:00,71.5,69.4,29.82,West,259,0.0,6.0,93,0.00,,---,0.00,VWS V14.00,2013-07-10 04:02:00,
2013-07-10 00:07:00,71.5,69.4,29.81,SSW,194,0.0,6.0,93,0.00,,---,0.00,VWS V14.00,2013-07-10 04:07:00,
2013-07-10 00:12:00,71.5,69.4,29.81,SSW,197,0.0,6.0,93,0.00,,---,0.00,VWS V14.00,2013-07-10 04:12:00,
2013-07-10 00:15:00,71.5,69.4,29.81,SSW,197,0.0,6.0,93,0.00,,---,0.00,VWS V14.00,2013-07-10 04:15:00,
2013-07-10 00:17:00,71.5,69.7,29.81,SSW,197,0.0,1.0,94,0.00,,---,0.00,VWS V14.00,2013-07-10 04:17:00,
2013-07-10 00:22:00,71.5,69.7,29.81,SSW,201,0.0,1.0,94,0.00,,---,0.00,VWS V14.00,2013-07-10 04:22:00,
2013-07-10 00:27:00,71.4,69.3,29.81,SSW,213,0.0,1.0,93,0.00,,---,0.00,VWS V14.00,2013-07-10 04:27:00,
2013-07-10 00:30:00,71.3,69.5,29.81,WSW,250,0.0,5.0,94,0.00,,---,0.00,VWS V14.00,2013-07-10 04:30:00,
2013-07-10 00:32:00,71.3,69.5,29.81,SSW,203,0.0,3.0,94,0.00,,---,0.00,VWS V14.00,2013-07-10 04:32:00,
2013-07-10 00:37:00,71.3,69.5,29.81,WSW,248,0.0,3.0,94,0.00,,---,0.00,VWS V14.00,2013-07-10 04:37:00,
2013-07-10 00:42:00,71.2,69.4,29.81,SSW,202,1.0,5.0,94,0.00,,---,0.00,VWS V14.00,2013-07-10 04:42:00,
2013-07-10 00:45:00,71.2,69.4,29.81,West,260,0.0,5.0,94,0.00,,---,0.00,VWS V14.00,2013-07-10 04:45:00,
2013-07-10 00:47:00,71.2,69.4,29.81,WSW,254,0.0,4.0,94,0.00,,---,0.00,VWS V14.00,2013-07-10 04:47:00,
2013-07-10 00:52:00,71.1,69.3,29.82,SSW,203,0.0,4.0,94,0.00,,---,0.00,VWS V14.00,2013-07-10 04:52:00,
2013-07-10 00:57:00,71.1,69.6,29.82,SSW,198,0.0,4.0,95,0.00,,---,0.00,VWS V14.00,2013-07-10 04:57:00,
2013-07-10 01:00:00,71.1,69.6,29.82,SSW,198,0.0,4.0,95,0.00,,---,0.00,VWS V14.00,2013-07-10 05:00:00,
2013-07-10 01:02:00,71.1,69.6,29.82,SSW,212,0.0,3.0,95,0.00,,---,0.00,VWS V14.00,2013-07-10 05:02:00,
2013-07-10 01:07:00,71.1,69.6,29.81,WSW,248,0.0,4.0,95,0.00,,---,0.00,VWS V14.00,2013-07-10 05:07:00,
2013-07-10 01:12:00,71.0,69.5,29.81,WSW,248,0.0,5.0,95,0.00,,---,0.00,VWS V14.00,2013-07-10 05:12:00,
2013-07-10 01:15:00,71.0,69.5,29.81,South,181,0.0,5.0,95,0.00,,---,0.00,VWS V14.00,2013-07-10 05:15:00,
2013-07-10 01:17:00,71.0,69.5,29.81,SW,215,0.0,3.0,95,0.00,,---,0.00,VWS V14.00,2013-07-10 05:17:00,
2013-07-10 01:22:00,71.0,69.5,29.81,WSW,238,0.0,3.0,95,0.00,,---,0.00,VWS V14.00,2013-07-10 05:22:00,
2013-07-10 01:27:00,71.0,69.5,29.80,SW,236,0.0,3.0,95,0.00,,---,0.00,VWS V14.00,2013-07-10 05:27:00,
2013-07-10 01:30:00,71.0,69.5,29.80,SW,236,0.0,3.0,95,0.00,,---,0.00,VWS V14.00,2013-07-10 05:30:00,
2013-07-10 01:32:00,71.0,69.5,29.80,SW,236,0.0,1.0,95,0.00,,---,0.00,VWS V14.00,2013-07-10 05:32:00,
2013-07-10 01:37:00,71.0,69.5,29.80,SSW,200,0.0,4.0,95,0.00,,---,0.00,VWS V14.00,2013-07-10 05:37:00,
2013-07-10 01:42:00,71.0,69.2,29.80,South,179,0.0,4.0,94,0.00,,---,0.00,VWS V14.00,2013-07-10 05:42:00,
2013-07-10 01:45:00,71.0,69.2,29.80,WSW,241,0.0,4.0,94,0.00,,---,0.00,VWS V14.00,2013-07-10 05:45:00,
2013-07-10 01:47:00,70.9,69.1,29.80,South,188,0.0,4.0,94,0.00,,---,0.00,VWS V14.00,2013-07-10 05:47:00,
2013-07-10 01:52:00,71.0,69.2,29.79,South,189,0.0,4.0,94,0.00,,---,0.00,VWS V14.00,2013-07-10 05:52:00,
2013-07-10 01:57:00,70.9,69.1,29.79,South,189,0.0,4.0,94,0.00,,---,0.00,VWS V14.00,2013-07-10 05:57:00,
2013-07-10 02:00:00,70.9,69.1,29.79,SW,215,0.0,4.0,94,0.00,,---,0.00,VWS V14.00,2013-07-10 06:00:00,
2013-07-10 02:02:00,70.9,69.1,29.79,SSW,200,0.0,5.0,94,0.00,,---,0.00,VWS V14.00,2013-07-10 06:02:00,
2013-07-10 02:07:00,70.9,69.1,29.79,South,187,0.0,5.0,94,0.00,,---,0.00,VWS V14.00,2013-07-10 06:07:00,
2013-07-10 02:12:00,70.8,69.0,29.79,South,186,0.0,5.0,94,0.00,,---,0.00,VWS V14.00,2013-07-10 06:12:00,
2013-07-10 02:15:00,70.8,69.0,29.78,SSW,201,0.0,5.0,94,0.00,,---,0.00,VWS V14.00,2013-07-10 06:15:00,
2013-07-10 02:17:00,70.8,69.0,29.78,SSW,201,0.0,0.0,94,0.00,,---,0.00,VWS V14.00,2013-07-10 06:17:00,
2013-07-10 02:22:00,70.8,69.0,29.78,SSW,192,0.0,4.0,94,0.00,,---,0.00,VWS V14.00,2013-07-10 06:22:00,
2013-07-10 02:27:00,70.8,69.0,29.78,South,169,1.0,6.0,94,0.00,,---,0.00,VWS V14.00,2013-07-10 06:27:00,
2013-07-10 02:30:00,70.7,68.9,29.78,SSW,192,0.0,6.0,94,0.00,,---,0.00,VWS V14.00,2013-07-10 06:30:00,
2013-07-10 02:32:00,70.7,68.9,29.78,South,187,0.0,1.0,94,0.00,,---,0.00,VWS V14.00,2013-07-10 06:32:00,
2013-07-10 02:37:00,70.7,68.9,29.78,South,174,0.0,5.0,94,0.00,,---,0.00,VWS V14.00,2013-07-10 06:37:00,
2013-07-10 02:42:00,70.7,68.9,29.78,SSE,163,0.0,7.0,94,0.00,,---,0.00,VWS V14.00,2013-07-10 06:42:00,
2013-07-10 02:45:00,70.7,68.9,29.78,South,175,1.0,7.0,94,0.00,,---,0.00,VWS V14.00,2013-07-10 06:45:00,
2013-07-10 02:47:00,70.6,68.8,29.78,South,186,0.0,1.0,94,0.00,,---,0.00,VWS V14.00,2013-07-10 06:47:00,
2013-07-10 02:52:00,70.6,68.8,29.78,West,259,0.0,4.0,94,0.00,,---,0.00,VWS V14.00,2013-07-10 06:52:00,
2013-07-10 02:57:00,70.5,68.7,29.78,SSW,192,0.0,4.0,94,0.00,,---,0.00,VWS V14.00,2013-07-10 06:57:00,
2013-07-10 03:00:00,70.5,68.7,29.78,SSW,192,0.0,4.0,94,0.00,,---,0.00,VWS V14.00,2013-07-10 07:00:00,
2013-07-10 03:02:00,70.5,68.7,29.77,SSW,192,0.0,1.0,94,0.00,,---,0.00,VWS V14.00,2013-07-10 07:02:00,
2013-07-10 03:07:00,70.5,68.7,29.77,SSW,202,0.0,4.0,94,0.00,,---,0.00,VWS V14.00,2013-07-10 07:07:00,
2013-07-10 03:12:00,70.4,68.6,29.77,South,186,0.0,4.0,94,0.00,,---,0.00,VWS V14.00,2013-07-10 07:12:00,
2013-07-10 03:15:00,70.4,68.6,29.77,SSW,195,0.0,4.0,94,0.00,,---,0.00,VWS V14.00,2013-07-10 07:15:00,
2013-07-10 03:17:00,70.4,68.6,29.76,SW,224,2.0,5.0,94,0.00,,---,0.00,VWS V14.00,2013-07-10 07:17:00,
2013-07-10 03:22:00,70.4,68.6,29.77,SSW,198,0.0,6.0,94,0.00,,---,0.00,VWS V14.00,2013-07-10 07:22:00,
2013-07-10 03:27:00,70.4,68.6,29.77,SW,215,1.0,6.0,94,0.00,,---,0.00,VWS V14.00,2013-07-10 07:27:00,
2013-07-10 03:30:00,70.4,68.6,29.77,SE,136,1.0,6.0,94,0.00,,---,0.00,VWS V14.00,2013-07-10 07:30:00,
2013-07-10 03:32:00,70.4,68.6,29.77,SW,225,0.0,7.0,94,0.00,,---,0.00,VWS V14.00,2013-07-10 07:32:00,
2013-07-10 03:37:00,70.4,68.6,29.77,South,177,2.0,7.0,94,0.00,,---,0.00,VWS V14.00,2013-07-10 07:37:00,
2013-07-10 03:42:00,70.4,68.6,29.77,South,186,2.0,7.0,94,0.00,,---,0.00,VWS V14.00,2013-07-10 07:42:00,
2013-07-10 03:45:00,70.5,68.7,29.77,SSW,200,0.0,7.0,94,0.00,,---,0.00,VWS V14.00,2013-07-10 07:45:00,
2013-07-10 03:47:00,70.5,68.7,29.77,WSW,238,0.0,7.0,94,0.00,,---,0.00,VWS V14.00,2013-07-10 07:47:00,
2013-07-10 03:52:00,70.6,68.8,29.77,WSW,240,3.0,7.0,94,0.00,,---,0.00,VWS V14.00,2013-07-10 07:52:00,
2013-07-10 03:57:00,70.6,68.8,29.77,SSW,203,0.0,7.0,94,0.00,,---,0.00,VWS V14.00,2013-07-10 07:57:00,
2013-07-10 04:00:00,70.6,68.8,29.77,SSW,209,0.0,7.0,94,0.00,,---,0.00,VWS V14.00,2013-07-10 08:00:00,
2013-07-10 04:02:00,70.7,68.9,29.77,West,271,1.0,3.0,94,0.00,,---,0.00,VWS V14.00,2013-07-10 08:02:00,
2013-07-10 04:07:00,70.7,68.9,29.77,SW,216,0.0,7.0,94,0.00,,---,0.00,VWS V14.00,2013-07-10 08:07:00,
2013-07-10 04:12:00,70.8,69.0,29.77,SW,230,2.0,9.0,94,0.00,,---,0.00,VWS V14.00,2013-07-10 08:12:00,
2013-07-10 04:15:00,70.8,69.0,29.77,SW,226,4.0,9.0,94,0.00,,---,0.00,VWS V14.00,2013-07-10 08:15:00,
2013-07-10 04:17:00,70.9,68.8,29.77,WSW,257,9.0,9.0,93,0.00,,---,0.00,VWS V14.00,2013-07-10 08:17:00,
2013-07-10 04:22:00,71.0,68.9,29.76,SW,219,4.0,9.0,93,0.00,,---,0.00,VWS V14.00,2013-07-10 08:22:00,
2013-07-10 04:27:00,71.0,68.9,29.76,WSW,240,0.0,9.0,93,0.01,,---,0.01,VWS V14.00,2013-07-10 08:27:00,
2013-07-10 04:30:00,71.0,68.9,29.76,SW,220,0.0,9.0,93,0.01,,---,0.01,VWS V14.00,2013-07-10 08:30:00,
2013-07-10 04:32:00,70.9,69.1,29.76,South,186,3.0,6.0,94,0.01,,---,0.01,VWS V14.00,2013-07-10 08:32:00,
2013-07-10 04:37:00,70.8,69.0,29.76,SSW,212,0.0,6.0,94,0.01,,---,0.01,VWS V14.00,2013-07-10 08:37:00,
2013-07-10 04:42:00,70.7,68.9,29.76,SSW,202,0.0,9.0,94,0.01,,---,0.01,VWS V14.00,2013-07-10 08:42:00,
2013-07-10 04:45:00,70.6,68.8,29.77,SW,225,4.0,9.0,94,0.01,,---,0.01,VWS V14.00,2013-07-10 08:45:00,
2013-07-10 04:47:00,70.6,68.8,29.77,SSW,192,3.0,9.0,94,0.01,,---,0.01,VWS V14.00,2013-07-10 08:47:00,
2013-07-10 04:52:00,70.5,69.0,29.77,WSW,252,2.0,9.0,95,0.01,,---,0.01,VWS V14.00,2013-07-10 08:52:00,
2013-07-10 04:57:00,70.4,68.9,29.77,WSW,246,0.0,9.0,95,0.01,,---,0.01,VWS V14.00,2013-07-10 08:57:00,
2013-07-10 05:00:00,70.4,68.9,29.77,WSW,257,0.0,9.0,95,0.01,,---,0.01,VWS V14.00,2013-07-10 09:00:00,
2013-07-10 05:02:00,70.4,68.9,29.77,WSW,251,9.0,11.0,95,0.01,,---,0.01,VWS V14.00,2013-07-10 09:02:00,
2013-07-10 05:07:00,70.4,68.9,29.77,WSW,239,0.0,11.0,95,0.01,,---,0.01,VWS V14.00,2013-07-10 09:07:00,
2013-07-10 05:12:00,70.3,68.8,29.77,WSW,250,1.0,11.0,95,0.01,,---,0.01,VWS V14.00,2013-07-10 09:12:00,
2013-07-10 05:15:00,70.3,68.8,29.77,SSW,207,0.0,11.0,95,0.01,,---,0.01,VWS V14.00,2013-07-10 09:15:00,
2013-07-10 05:17:00,70.3,68.8,29.77,WSW,246,2.0,3.0,95,0.01,,---,0.01,VWS V14.00,2013-07-10 09:17:00,
2013-07-10 05:22:00,70.3,68.8,29.77,SW,219,0.0,10.0,95,0.01,,---,0.01,VWS V14.00,2013-07-10 09:22:00,
2013-07-10 05:28:00,70.3,68.8,29.77,WSW,240,4.0,10.0,95,0.01,,---,0.01,VWS V14.00,2013-07-10 09:28:00,
2013-07-10 05:30:00,70.3,68.8,29.77,SW,235,1.0,10.0,95,0.01,,---,0.01,VWS V14.00,2013-07-10 09:30:00,
2013-07-10 05:33:00,70.2,68.7,29.77,SSW,202,0.0,9.0,95,0.00,,---,0.01,VWS V14.00,2013-07-10 09:33:00,
2013-07-10 05:38:00,70.2,68.7,29.77,SW,225,0.0,9.0,95,0.00,,---,0.01,VWS V14.00,2013-07-10 09:38:00,
2013-07-10 05:42:00,70.1,68.6,29.77,SSW,205,0.0,9.0,95,0.01,,---,0.02,VWS V14.00,2013-07-10 09:42:00,
2013-07-10 05:45:00,70.1,68.6,29.77,WSW,237,6.0,9.0,95,0.01,,---,0.02,VWS V14.00,2013-07-10 09:45:00,
2013-07-10 05:48:00,70.0,68.5,29.77,WSW,241,0.0,6.0,95,0.02,,---,0.03,VWS V14.00,2013-07-10 09:48:00,
2013-07-10 05:53:00,69.9,68.4,29.77,SSW,202,2.0,6.0,95,0.02,,---,0.03,VWS V14.00,2013-07-10 09:53:00,
2013-07-10 05:58:00,69.9,68.7,29.77,WSW,252,5.0,6.0,96,0.03,,---,0.04,VWS V14.00,2013-07-10 09:58:00,
2013-07-10 06:00:00,69.8,68.6,29.77,SSW,213,1.0,6.0,96,0.03,,---,0.04,VWS V14.00,2013-07-10 10:00:00,
2013-07-10 06:03:00,69.8,68.6,29.77,SW,225,0.0,1.0,96,0.04,,---,0.05,VWS V14.00,2013-07-10 10:03:00,
2013-07-10 06:08:00,69.7,68.5,29.77,SW,229,0.0,4.0,96,0.04,,---,0.05,VWS V14.00,2013-07-10 10:08:00,
2013-07-10 06:13:00,69.7,68.5,29.75,SW,217,1.0,7.0,96,0.05,,---,0.06,VWS V14.00,2013-07-10 10:13:00,
2013-07-10 06:15:00,69.6,68.4,29.75,SSW,205,0.0,7.0,96,0.05,,---,0.06,VWS V14.00,2013-07-10 10:15:00,
2013-07-10 06:18:00,69.5,68.3,29.75,SW,229,7.0,7.0,96,0.06,,---,0.07,VWS V14.00,2013-07-10 10:18:00,
2013-07-10 06:23:00,69.5,68.3,29.75,SSW,192,0.0,10.0,96,0.06,,---,0.07,VWS V14.00,2013-07-10 10:23:00,
2013-07-10 06:28:00,69.3,68.1,29.75,SSW,199,0.0,10.0,96,0.07,,---,0.08,VWS V14.00,2013-07-10 10:28:00,
2013-07-10 06:30:00,69.3,68.1,29.75,WNW,288,0.0,10.0,96,0.07,,---,0.08,VWS V14.00,2013-07-10 10:30:00,
2013-07-10 06:33:00,69.2,68.0,29.75,SSW,193,3.0,6.0,96,0.07,,---,0.08,VWS V14.00,2013-07-10 10:33:00,
2013-07-10 06:38:00,69.1,67.9,29.75,SW,214,0.0,11.0,96,0.08,,---,0.09,VWS V14.00,2013-07-10 10:38:00,
2013-07-10 06:43:00,69.0,67.8,29.74,SSW,206,0.0,11.0,96,0.08,,---,0.09,VWS V14.00,2013-07-10 10:43:00,
2013-07-10 06:45:00,69.0,67.8,29.74,WSW,246,2.0,11.0,96,0.08,,---,0.09,VWS V14.00,2013-07-10 10:45:00,
2013-07-10 06:48:00,69.0,67.8,29.75,WSW,239,0.0,9.0,96,0.07,,---,0.09,VWS V14.00,2013-07-10 10:48:00,
2013-07-10 06:53:00,69.0,67.8,29.75,SSW,192,6.0,11.0,96,0.07,,---,0.09,VWS V14.00,2013-07-10 10:53:00,
2013-07-10 06:58:00,69.0,67.8,29.75,South,184,0.0,11.0,96,0.07,,---,0.09,VWS V14.00,2013-07-10 10:58:00,
2013-07-10 07:00:00,69.0,67.8,29.74,South,191,1.0,11.0,96,0.07,,---,0.09,VWS V14.00,2013-07-10 11:00:00,
2013-07-10 07:03:00,68.9,67.7,29.75,South,181,7.0,7.0,96,0.05,,---,0.09,VWS V14.00,2013-07-10 11:03:00,
2013-07-10 07:08:00,68.8,67.6,29.75,WSW,248,0.0,8.0,96,0.05,,---,0.09,VWS V14.00,2013-07-10 11:08:00,
2013-07-10 07:13:00,68.7,67.5,29.75,WSW,238,0.0,9.0,96,0.05,,---,0.09,VWS V14.00,2013-07-10 11:13:00,
2013-07-10 07:15:00,68.6,67.4,29.75,WSW,244,1.0,9.0,96,0.05,,---,0.09,VWS V14.00,2013-07-10 11:15:00,
2013-07-10 07:18:00,68.5,67.3,29.75,WSW,251,0.0,7.0,96,0.03,,---,0.09,VWS V14.00,2013-07-10 11:18:00,
2013-07-10 07:23:00,68.3,67.1,29.75,WSW,247,4.0,7.0,96,0.03,,---,0.09,VWS V14.00,2013-07-10 11:23:00,
2013-07-10 07:28:00,68.3,67.1,29.75,WSW,244,0.0,7.0,96,0.03,,---,0.09,VWS V14.00,2013-07-10 11:28:00,
2013-07-10 07:30:00,68.2,67.0,29.75,WSW,237,0.0,7.0,96,0.03,,---,0.09,VWS V14.00,2013-07-10 11:30:00,
2013-07-10 07:33:00,68.2,67.0,29.75,WSW,237,0.0,0.0,96,0.02,,---,0.10,VWS V14.00,2013-07-10 11:33:00,
2013-07-10 07:38:00,68.2,67.0,29.75,SW,236,0.0,3.0,96,0.02,,---,0.10,VWS V14.00,2013-07-10 11:38:00,
2013-07-10 07:43:00,68.3,67.1,29.75,SW,228,0.0,3.0,96,0.02,,---,0.10,VWS V14.00,2013-07-10 11:43:00,
2013-07-10 07:45:00,68.3,67.1,29.76,SSW,204,0.0,3.0,96,0.02,,---,0.10,VWS V14.00,2013-07-10 11:45:00,
2013-07-10 07:48:00,68.3,67.1,29.76,SSW,204,0.0,1.0,96,0.01,,---,0.10,VWS V14.00,2013-07-10 11:48:00,
2013-07-10 07:53:00,68.3,67.1,29.76,SSW,204,0.0,1.0,96,0.01,,---,0.10,VWS V14.00,2013-07-10 11:53:00,
2013-07-10 07:58:00,68.4,67.2,29.76,SSW,194,2.0,4.0,96,0.01,,---,0.10,VWS V14.00,2013-07-10 11:58:00,
2013-07-10 08:00:00,68.4,67.2,29.76,SSW,194,0.0,4.0,96,0.01,,---,0.10,VWS V14.00,2013-07-10 12:00:00,
2013-07-10 08:03:00,68.4,67.2,29.76,SSW,198,0.0,3.0,96,0.01,,---,0.10,VWS V14.00,2013-07-10 12:03:00,
2013-07-10 08:08:00,68.3,66.8,29.76,WSW,251,0.0,3.0,95,0.01,,---,0.10,VWS V14.00,2013-07-10 12:08:00,
2013-07-10 08:13:00,68.3,66.8,29.76,WSW,240,0.0,3.0,95,0.01,,---,0.10,VWS V14.00,2013-07-10 12:13:00,
2013-07-10 08:15:00,68.3,66.8,29.76,South,189,3.0,3.0,95,0.01,,---,0.10,VWS V14.00,2013-07-10 12:15:00,
2013-07-10 08:18:00,68.2,66.7,29.77,WSW,241,2.0,8.0,95,0.01,,---,0.10,VWS V14.00,2013-07-10 12:18:00,
2013-07-10 08:23:00,68.2,66.7,29.76,SSW,200,0.0,8.0,95,0.01,,---,0.10,VWS V14.00,2013-07-10 12:23:00,
2013-07-10 08:28:00,68.3,66.8,29.76,South,185,5.0,8.0,95,0.01,,---,0.10,VWS V14.00,2013-07-10 12:28:00,
2013-07-10 08:30:00,68.2,66.4,29.76,SSW,203,1.0,8.0,94,0.01,,---,0.10,VWS V14.00,2013-07-10 12:30:00,
2013-07-10 08:33:00,68.2,66.4,29.76,SSW,207,0.0,5.0,94,0.01,,---,0.10,VWS V14.00,2013-07-10 12:33:00,
2013-07-10 08:38:00,68.1,66.3,29.76,South,180,0.0,5.0,94,0.01,,---,0.10,VWS V14.00,2013-07-10 12:38:00,
2013-07-10 08:43:00,68.4,66.9,29.76,SSW,212,2.0,5.0,95,0.01,,---,0.10,VWS V14.00,2013-07-10 12:43:00,
2013-07-10 08:45:00,68.5,67.0,29.76,WSW,237,0.0,5.0,95,0.01,,---,0.10,VWS V14.00,2013-07-10 12:45:00,
2013-07-10 08:48:00,68.8,67.0,29.76,SSE,160,0.0,3.0,94,0.00,,---,0.10,VWS V14.00,2013-07-10 12:48:00,
2013-07-10 08:53:00,69.0,67.2,29.76,SSW,206,5.0,8.0,94,0.00,,---,0.10,VWS V14.00,2013-07-10 12:53:00,
2013-07-10 08:58:00,69.1,67.3,29.76,SSE,159,0.0,8.0,94,0.00,,---,0.10,VWS V14.00,2013-07-10 12:58:00,
2013-07-10 09:00:00,69.1,67.3,29.76,South,189,4.0,8.0,94,0.00,,---,0.10,VWS V14.00,2013-07-10 13:00:00,
2013-07-10 09:03:00,69.2,67.4,29.76,SSW,199,0.0,8.0,94,0.00,,---,0.10,VWS V14.00,2013-07-10 13:03:00,
2013-07-10 09:08:00,69.2,67.4,29.76,South,179,2.0,8.0,94,0.00,,---,0.10,VWS V14.00,2013-07-10 13:08:00,
2013-07-10 09:13:00,69.3,67.5,29.76,SSW,213,0.0,8.0,94,0.00,,---,0.10,VWS V14.00,2013-07-10 13:13:00,
2013-07-10 09:15:00,69.4,67.6,29.77,SSW,211,0.0,8.0,94,0.00,,---,0.10,VWS V14.00,2013-07-10 13:15:00,
2013-07-10 09:18:00,69.7,67.9,29.76,South,174,2.0,4.0,94,0.00,,---,0.10,VWS V14.00,2013-07-10 13:18:00,
2013-07-10 09:23:00,69.8,68.0,29.77,SSW,194,0.0,4.0,94,0.00,,---,0.10,VWS V14.00,2013-07-10 13:23:00,
2013-07-10 09:28:00,69.8,67.7,29.76,WSW,238,0.0,5.0,93,0.00,,---,0.10,VWS V14.00,2013-07-10 13:28:00,
2013-07-10 09:30:00,69.9,67.8,29.76,SW,235,0.0,5.0,93,0.00,,---,0.10,VWS V14.00,2013-07-10 13:30:00,
2013-07-10 09:33:00,69.9,67.8,29.77,South,179,0.0,1.0,93,0.00,,---,0.10,VWS V14.00,2013-07-10 13:33:00,
2013-07-10 09:38:00,70.0,67.9,29.77,South,188,0.0,5.0,93,0.00,,---,0.10,VWS V14.00,2013-07-10 13:38:00,
2013-07-10 09:43:00,70.3,68.5,29.77,South,188,0.0,5.0,94,0.00,,---,0.10,VWS V14.00,2013-07-10 13:43:00,
2013-07-10 09:45:00,70.3,68.2,29.77,SSW,200,0.0,6.0,93,0.00,,---,0.10,VWS V14.00,2013-07-10 13:45:00,
2013-07-10 09:48:00,70.5,68.4,29.76,SSW,196,0.0,4.0,93,0.00,,---,0.10,VWS V14.00,2013-07-10 13:48:00,
2013-07-10 09:53:00,70.8,68.7,29.76,South,180,0.0,4.0,93,0.00,,---,0.10,VWS V14.00,2013-07-10 13:53:00,
2013-07-10 09:58:00,71.2,69.1,29.76,SW,225,0.0,5.0,93,0.00,,---,0.10,VWS V14.00,2013-07-10 13:58:00,
2013-07-10 10:00:00,71.3,69.2,29.76,SW,225,0.0,5.0,93,0.00,,---,0.10,VWS V14.00,2013-07-10 14:00:00,
2013-07-10 10:03:00,71.6,69.5,29.76,SSW,213,0.0,1.0,93,0.00,,---,0.10,VWS V14.00,2013-07-10 14:03:00,
2013-07-10 10:08:00,72.1,69.7,29.76,South,190,0.0,5.0,92,0.00,,---,0.10,VWS V14.00,2013-07-10 14:08:00,
2013-07-10 10:13:00,72.5,70.1,29.75,South,186,0.0,6.0,92,0.00,,---,0.10,VWS V14.00,2013-07-10 14:13:00,
2013-07-10 10:15:00,72.5,69.7,29.75,South,184,2.0,6.0,91,0.00,,---,0.10,VWS V14.00,2013-07-10 14:15:00,
2013-07-10 10:18:00,72.7,69.9,29.76,WSW,240,0.0,5.0,91,0.00,,---,0.10,VWS V14.00,2013-07-10 14:18:00,
2013-07-10 10:23:00,72.9,70.1,29.75,South,183,0.0,5.0,91,0.00,,---,0.10,VWS V14.00,2013-07-10 14:23:00,
2013-07-10 10:28:00,73.1,70.3,29.75,SSW,213,0.0,5.0,91,0.00,,---,0.10,VWS V14.00,2013-07-10 14:28:00,
2013-07-10 10:30:00,73.2,70.4,29.75,South,183,2.0,5.0,91,0.00,,---,0.10,VWS V14.00,2013-07-10 14:30:00,
2013-07-10 10:33:00,73.3,70.5,29.76,SW,227,0.0,4.0,91,0.00,,---,0.10,VWS V14.00,2013-07-10 14:33:00,
2013-07-10 10:38:00,73.4,70.3,29.75,SW,221,3.0,6.0,90,0.00,,---,0.10,VWS V14.00,2013-07-10 14:38:00,
2013-07-10 10:43:00,73.5,70.7,29.75,SW,230,0.0,9.0,91,0.00,,---,0.10,VWS V14.00,2013-07-10 14:43:00,
2013-07-10 10:45:00,73.5,70.7,29.75,SSW,192,3.0,9.0,91,0.00,,---,0.10,VWS V14.00,2013-07-10 14:45:00,
2013-07-10 10:48:00,73.8,71.0,29.75,SW,214,5.0,7.0,91,0.00,,---,0.10,VWS V14.00,2013-07-10 14:48:00,
2013-07-10 10:53:00,74.3,71.2,29.75,SSW,213,0.0,7.0,90,0.00,,---,0.10,VWS V14.00,2013-07-10 14:53:00,
2013-07-10 10:58:00,74.9,71.8,29.75,South,173,0.0,7.0,90,0.00,,---,0.10,VWS V14.00,2013-07-10 14:58:00,
2013-07-10 11:00:00,75.0,71.9,29.75,WSW,250,3.0,7.0,90,0.00,,---,0.10,VWS V14.00,2013-07-10 15:00:00,
2013-07-10 11:03:00,75.3,71.8,29.75,WSW,250,4.0,8.0,89,0.00,,---,0.10,VWS V14.00,2013-07-10 15:03:00,
2013-07-10 11:08:00,75.6,72.1,29.75,WSW,242,0.0,10.0,89,0.00,,---,0.10,VWS V14.00,2013-07-10 15:08:00,
2013-07-10 11:13:00,75.8,72.3,29.75,WSW,244,4.0,10.0,89,0.00,,---,0.10,VWS V14.00,2013-07-10 15:13:00,
2013-07-10 11:15:00,75.8,72.3,29.75,West,259,1.0,10.0,89,0.00,,---,0.10,VWS V14.00,2013-07-10 15:15:00,
2013-07-10 11:18:00,76.0,72.5,29.75,SSE,166,0.0,8.0,89,0.00,,---,0.10,VWS V14.00,2013-07-10 15:18:00,
2013-07-10 11:23:00,75.8,72.3,29.75,West,259,5.0,9.0,89,0.00,,---,0.10,VWS V14.00,2013-07-10 15:23:00,
2013-07-10 11:28:00,75.7,72.2,29.75,WSW,252,0.0,9.0,89,0.00,,---,0.10,VWS V14.00,2013-07-10 15:28:00,
2013-07-10 11:30:00,75.7,72.6,29.75,WSW,243,0.0,9.0,90,0.00,,---,0.10,VWS V14.00,2013-07-10 15:30:00,
2013-07-10 11:33:00,75.7,72.6,29.75,SW,233,0.0,8.0,90,0.00,,---,0.10,VWS V14.00,2013-07-10 15:33:00,
2013-07-10 11:38:00,75.8,72.7,29.75,SW,227,0.0,9.0,90,0.00,,---,0.10,VWS V14.00,2013-07-10 15:38:00,
2013-07-10 11:43:00,76.0,72.9,29.75,WSW,248,4.0,9.0,90,0.00,,---,0.10,VWS V14.00,2013-07-10 15:43:00,
2013-07-10 11:45:00,76.1,73.0,29.75,SW,233,0.0,9.0,90,0.00,,---,0.10,VWS V14.00,2013-07-10 15:45:00,
2013-07-10 11:48:00,76.3,73.2,29.75,SSW,212,1.0,4.0,90,0.00,,---,0.10,VWS V14.00,2013-07-10 15:48:00,
2013-07-10 11:53:00,76.8,73.7,29.74,WSW,250,2.0,7.0,90,0.00,,---,0.10,VWS V14.00,2013-07-10 15:53:00,
2013-07-10 11:58:00,77.5,74.3,29.74,SW,227,0.0,7.0,90,0.00,,---,0.10,VWS V14.00,2013-07-10 15:58:00,
2013-07-10 12:00:00,77.9,74.7,29.74,WSW,249,9.0,10.0,90,0.00,,---,0.10,VWS V14.00,2013-07-10 16:00:00,
2013-07-10 12:03:00,78.2,74.4,29.74,SSW,213,0.0,9.0,88,0.00,,---,0.10,VWS V14.00,2013-07-10 16:03:00,
2013-07-10 12:08:00,78.3,74.1,29.74,WSW,238,0.0,9.0,87,0.00,,---,0.10,VWS V14.00,2013-07-10 16:08:00,
2013-07-10 12:13:00,78.4,74.6,29.74,SSW,212,3.0,9.0,88,0.00,,---,0.10,VWS V14.00,2013-07-10 16:13:00,
2013-07-10 12:15:00,78.5,74.7,29.74,WSW,239,4.0,9.0,88,0.00,,---,0.10,VWS V14.00,2013-07-10 16:15:00,
2013-07-10 12:18:00,78.7,74.5,29.74,SW,225,0.0,7.0,87,0.00,,---,0.10,VWS V14.00,2013-07-10 16:18:00,
2013-07-10 12:23:00,78.9,74.7,29.74,SW,223,0.0,11.0,87,0.00,,---,0.10,VWS V14.00,2013-07-10 16:23:00,
2013-07-10 12:28:00,79.1,74.2,29.73,West,265,0.0,11.0,85,0.00,,---,0.10,VWS V14.00,2013-07-10 16:28:00,
2013-07-10 12:30:00,79.2,74.7,29.73,NNW,332,0.0,11.0,86,0.00,,---,0.10,VWS V14.00,2013-07-10 16:30:00,
2013-07-10 12:33:00,79.4,74.8,29.73,SW,215,0.0,8.0,86,0.00,,---,0.10,VWS V14.00,2013-07-10 16:33:00,
2013-07-10 12:38:00,79.8,75.2,29.73,West,263,0.0,8.0,86,0.00,,---,0.10,VWS V14.00,2013-07-10 16:38:00,
2013-07-10 12:43:00,79.6,74.7,29.72,WNW,283,1.0,8.0,85,0.00,,---,0.10,VWS V14.00,2013-07-10 16:43:00,
2013-07-10 12:45:00,79.6,75.1,29.72,SW,217,0.0,8.0,86,0.00,,---,0.10,VWS V14.00,2013-07-10 16:45:00,
2013-07-10 12:48:00,79.9,75.3,29.72,WSW,238,1.0,9.0,86,0.00,,---,0.10,VWS V14.00,2013-07-10 16:48:00,
2013-07-10 12:53:00,80.0,74.7,29.72,WSW,250,0.0,10.0,84,0.00,,---,0.10,VWS V14.00,2013-07-10 16:53:00,
2013-07-10 12:58:00,80.2,74.9,29.72,WSW,244,2.0,10.0,84,0.00,,---,0.10,VWS V14.00,2013-07-10 16:58:00,
2013-07-10 13:00:00,80.3,75.4,29.72,WSW,239,2.0,10.0,85,0.00,,---,0.10,VWS V14.00,2013-07-10 17:00:00,
2013-07-10 13:03:00,80.9,76.0,29.72,WSW,248,4.0,8.0,85,0.00,,---,0.10,VWS V14.00,2013-07-10 17:03:00,
2013-07-10 13:08:00,80.8,74.8,29.72,WSW,240,0.0,8.0,82,0.00,,---,0.10,VWS V14.00,2013-07-10 17:08:00,
2013-07-10 13:13:00,80.8,75.2,29.72,WSW,237,0.0,8.0,83,0.00,,---,0.10,VWS V14.00,2013-07-10 17:13:00,
2013-07-10 13:15:00,80.8,75.2,29.72,WSW,237,0.0,8.0,83,0.00,,---,0.10,VWS V14.00,2013-07-10 17:15:00,
2013-07-10 13:18:00,81.0,75.7,29.72,WSW,248,6.0,8.0,84,0.00,,---,0.10,VWS V14.00,2013-07-10 17:18:00,
2013-07-10 13:23:00,81.6,75.6,29.71,SSW,205,5.0,8.0,82,0.00,,---,0.10,VWS V14.00,2013-07-10 17:23:00,
2013-07-10 13:28:00,81.7,75.3,29.71,SW,235,1.0,8.0,81,0.00,,---,0.10,VWS V14.00,2013-07-10 17:28:00,
2013-07-10 13:30:00,81.6,75.6,29.72,WSW,257,1.0,8.0,82,0.00,,---,0.10,VWS V14.00,2013-07-10 17:30:00,
2013-07-10 13:33:00,81.7,76.0,29.71,West,259,3.0,6.0,83,0.00,,---,0.10,VWS V14.00,2013-07-10 17:33:00,
2013-07-10 13:38:00,81.7,75.7,29.71,West,260,0.0,6.0,82,0.00,,---,0.10,VWS V14.00,2013-07-10 17:38:00,
2013-07-10 13:43:00,81.7,75.7,29.71,SW,232,0.0,6.0,82,0.00,,---,0.10,VWS V14.00,2013-07-10 17:43:00,
2013-07-10 13:45:00,81.6,75.6,29.71,SSW,207,1.0,6.0,82,0.00,,---,0.10,VWS V14.00,2013-07-10 17:45:00,
2013-07-10 13:48:00,81.8,75.8,29.71,WSW,248,0.0,4.0,82,0.00,,---,0.10,VWS V14.00,2013-07-10 17:48:00,
2013-07-10 13:53:00,82.2,76.2,29.70,SSW,204,2.0,6.0,82,0.00,,---,0.10,VWS V14.00,2013-07-10 17:53:00,
2013-07-10 13:58:00,82.3,75.9,29.70,SW,226,5.0,11.0,81,0.00,,---,0.10,VWS V14.00,2013-07-10 17:58:00,
2013-07-10 14:00:00,82.2,75.4,29.70,SW,236,0.0,11.0,80,0.00,,---,0.10,VWS V14.00,2013-07-10 18:00:00,
2013-07-10 14:03:00,82.0,75.6,29.70,WSW,247,0.0,6.0,81,0.00,,---,0.10,VWS V14.00,2013-07-10 18:03:00,
2013-07-10 14:08:00,82.0,76.3,29.70,SW,230,0.0,6.0,83,0.00,,---,0.10,VWS V14.00,2013-07-10 18:08:00,
2013-07-10 14:13:00,81.9,76.2,29.69,WSW,237,0.0,8.0,83,0.00,,---,0.10,VWS V14.00,2013-07-10 18:13:00,
2013-07-10 14:15:00,81.9,76.2,29.69,South,188,0.0,8.0,83,0.00,,---,0.10,VWS V14.00,2013-07-10 18:15:00,
2013-07-10 14:18:00,82.1,76.8,29.69,South,189,3.0,5.0,84,0.00,,---,0.10,VWS V14.00,2013-07-10 18:18:00,
2013-07-10 14:23:00,82.2,76.5,29.69,SSW,194,0.0,8.0,83,0.00,,---,0.10,VWS V14.00,2013-07-10 18:23:00,
2013-07-10 14:28:00,82.3,77.0,29.68,South,186,0.0,8.0,84,0.00,,---,0.10,VWS V14.00,2013-07-10 18:28:00,
2013-07-10 14:30:00,82.3,76.6,29.68,SSW,193,0.0,8.0,83,0.00,,---,0.10,VWS V14.00,2013-07-10 18:30:00,
2013-07-10 14:33:00,82.4,76.7,29.67,South,178,7.0,7.0,83,0.00,,---,0.10,VWS V14.00,2013-07-10 18:33:00,
2013-07-10 14:38:00,82.5,77.2,29.67,South,179,2.0,7.0,84,0.00,,---,0.10,VWS V14.00,2013-07-10 18:38:00,
2013-07-10 14:43:00,82.8,77.5,29.66,SSE,163,0.0,7.0,84,0.00,,---,0.10,VWS V14.00,2013-07-10 18:43:00,
2013-07-10 14:45:00,82.8,77.1,29.66,SSE,158,1.0,7.0,83,0.00,,---,0.10,VWS V14.00,2013-07-10 18:45:00,
2013-07-10 14:48:00,83.0,77.3,29.66,SSW,199,0.0,5.0,83,0.00,,---,0.10,VWS V14.00,2013-07-10 18:48:00,
2013-07-10 14:53:00,83.1,76.3,29.66,SSW,207,0.0,8.0,80,0.00,,---,0.10,VWS V14.00,2013-07-10 18:53:00,
2013-07-10 14:58:00,83.3,75.7,29.65,SW,225,0.0,8.0,78,0.00,,---,0.10,VWS V14.00,2013-07-10 18:58:00,
2013-07-10 15:00:00,83.3,76.1,29.65,SW,226,0.0,8.0,79,0.00,,---,0.10,VWS V14.00,2013-07-10 19:00:00,
2013-07-10 15:03:00,83.3,76.1,29.66,WSW,252,0.0,3.0,79,0.00,,---,0.10,VWS V14.00,2013-07-10 19:03:00,
2013-07-10 15:08:00,83.2,76.8,29.65,WSW,238,0.0,5.0,81,0.00,,---,0.10,VWS V14.00,2013-07-10 19:08:00,
2013-07-10 15:13:00,83.0,76.2,29.65,WSW,240,0.0,5.0,80,0.00,,---,0.10,VWS V14.00,2013-07-10 19:13:00,
2013-07-10 15:15:00,83.0,76.6,29.65,WSW,244,3.0,5.0,81,0.00,,---,0.10,VWS V14.00,2013-07-10 19:15:00,
2013-07-10 15:18:00,82.8,76.0,29.66,South,191,0.0,4.0,80,0.00,,---,0.10,VWS V14.00,2013-07-10 19:18:00,
2013-07-10 15:23:00,82.5,76.1,29.66,WSW,237,3.0,4.0,81,0.00,,---,0.10,VWS V14.00,2013-07-10 19:23:00,
2013-07-10 15:28:00,82.3,76.6,29.66,WSW,237,0.0,4.0,83,0.00,,---,0.10,VWS V14.00,2013-07-10 19:28:00,
2013-07-10 15:30:00,82.3,76.3,29.66,WSW,237,0.0,4.0,82,0.00,,---,0.10,VWS V14.00,2013-07-10 19:30:00,
2013-07-10 15:33:00,82.1,76.1,29.65,SSW,198,0.0,3.0,82,0.00,,---,0.10,VWS V14.00,2013-07-10 19:33:00,
2013-07-10 15:38:00,81.6,76.3,29.64,SSW,196,0.0,5.0,84,0.00,,---,0.10,VWS V14.00,2013-07-10 19:38:00,
2013-07-10 15:43:00,81.1,75.8,29.63,SSE,153,2.0,5.0,84,0.00,,---,0.10,VWS V14.00,2013-07-10 19:43:00,
2013-07-10 15:45:00,81.0,75.7,29.63,SE,136,0.0,5.0,84,0.00,,---,0.10,VWS V14.00,2013-07-10 19:45:00,
2013-07-10 15:49:00,80.5,75.6,29.62,SSW,194,2.0,6.0,85,0.00,,---,0.10,VWS V14.00,2013-07-10 19:49:00,
2013-07-10 15:53:00,80.1,75.5,29.64,SSW,207,0.0,6.0,86,0.00,,---,0.10,VWS V14.00,2013-07-10 19:53:00,
2013-07-10 15:59:00,79.9,75.7,29.64,SSW,194,0.0,6.0,87,0.00,,---,0.10,VWS V14.00,2013-07-10 19:59:00,
2013-07-10 16:00:00,79.8,75.2,29.65,SSW,212,13.0,16.0,86,0.01,,---,0.11,VWS V14.00,2013-07-10 20:00:00,
2013-07-10 16:04:00,78.1,71.4,29.66,SSW,207,4.0,21.0,80,0.01,,---,0.11,VWS V14.00,2013-07-10 20:04:00,
2013-07-10 16:09:00,75.5,70.0,29.67,WSW,238,4.0,22.0,83,0.02,,---,0.12,VWS V14.00,2013-07-10 20:09:00,
2013-07-10 16:14:00,72.6,68.2,29.68,WSW,242,0.0,22.0,86,0.35,,---,0.45,VWS V14.00,2013-07-10 20:14:00,
2013-07-10 16:15:00,72.1,67.7,29.67,SE,131,2.0,22.0,86,0.37,,---,0.47,VWS V14.00,2013-07-10 20:15:00,
2013-07-10 16:19:00,70.6,66.9,29.66,SSW,194,0.0,4.0,88,0.41,,---,0.51,VWS V14.00,2013-07-10 20:19:00,
2013-07-10 16:30:00,69.7,67.3,29.67,South,180,0.0,7.0,92,0.06,,---,0.16,VWS V14.00,2013-07-10 20:30:00,
2013-07-10 16:45:00,70.0,68.2,29.74,SSW,202,1.0,6.0,94,0.07,,---,0.17,VWS V14.00,2013-07-10 20:45:00,
2013-07-10 17:00:00,69.6,67.5,29.79,NW,315,5.0,12.0,93,0.20,,---,0.30,VWS V14.00,2013-07-10 21:00:00,
2013-07-10 17:15:00,68.7,66.6,29.78,NW,315,2.0,9.0,93,0.28,,---,0.39,VWS V14.00,2013-07-10 21:15:00,
2013-07-10 17:30:00,68.1,66.0,29.74,NNW,338,2.0,7.0,93,0.00,,---,0.43,VWS V14.00,2013-07-10 21:30:00,
2013-07-10 17:45:00,67.9,66.1,29.74,SSE,158,0.0,2.0,94,0.31,,---,0.47,VWS V14.00,2013-07-10 21:45:00,
2013-07-10 18:00:00,67.8,66.3,29.72,SSW,202,3.0,6.0,95,0.36,,---,0.53,VWS V14.00,2013-07-10 22:00:00,
2013-07-10 18:15:00,67.9,66.4,29.71,South,180,4.0,10.0,95,0.28,,---,0.58,VWS V14.00,2013-07-10 22:15:00,
2013-07-10 18:30:00,67.8,66.6,29.71,South,180,3.0,11.0,96,0.24,,---,0.63,VWS V14.00,2013-07-10 22:30:00,
2013-07-10 18:45:00,67.5,66.0,29.67,South,180,7.0,15.0,95,0.24,,---,0.67,VWS V14.00,2013-07-10 22:45:00,
2013-07-10 19:00:00,67.8,66.3,29.72,SSW,202,3.0,6.0,95,0.36,,---,0.53,VWS V14.00,2013-07-10 23:00:00,
2013-07-10 19:03:00,67.5,66.0,29.67,South,180,7.0,15.0,95,0.24,,---,0.67,VWS V14.00,2013-07-10 23:03:00,
2013-07-10 19:08:00,67.2,65.7,29.66,SSW,205,0.0,10.0,95,0.58,,---,1.05,VWS V14.00,2013-07-10 23:08:00,
2013-07-10 19:13:00,67.2,65.4,29.67,SSW,194,4.0,10.0,94,0.58,,---,1.05,VWS V14.00,2013-07-10 23:13:00,
2013-07-10 19:15:00,67.2,65.4,29.67,South,190,3.0,10.0,94,0.58,,---,1.05,VWS V14.00,2013-07-10 23:15:00,
2013-07-10 19:18:00,67.2,65.4,29.67,SSW,195,0.0,6.0,94,0.47,,---,1.05,VWS V14.00,2013-07-10 23:18:00,
2013-07-10 19:25:00,67.2,65.4,29.67,South,178,1.0,1.0,94,0.47,,---,1.05,VWS V14.00,2013-07-10 23:25:00,
2013-07-10 19:30:00,67.2,65.7,29.68,South,183,0.0,1.0,95,0.47,,---,1.05,VWS V14.00,2013-07-10 23:30:00,
2013-07-10 19:45:00,67.4,65.9,29.70,WSW,248,1.0,7.0,95,0.04,,---,0.67,VWS V14.00,2013-07-10 23:45:00,
2013-07-10 20:00:00,67.3,65.8,29.70,WSW,248,0.0,5.0,95,0.00,,---,0.67,VWS V14.00,2013-07-11 00:00:00,
2013-07-10 20:15:00,67.1,65.9,29.71,SW,225,0.0,2.0,96,0.00,,---,0.67,VWS V14.00,2013-07-11 00:15:00,
2013-07-10 20:30:00,67.0,65.8,29.73,West,270,1.0,5.0,96,0.00,,---,0.67,VWS V14.00,2013-07-11 00:30:00,
2013-07-10 20:45:00,66.8,65.6,29.74,WSW,248,1.0,7.0,96,0.00,,---,0.67,VWS V14.00,2013-07-11 00:45:00,
2013-07-10 21:00:00,66.7,65.5,29.74,WSW,248,1.0,5.0,96,0.00,,---,0.67,VWS V14.00,2013-07-11 01:00:00,
2013-07-10 21:15:00,66.5,65.3,29.75,WSW,248,1.0,6.0,96,0.00,,---,0.67,VWS V14.00,2013-07-11 01:15:00,
2013-07-10 21:30:00,66.3,65.1,29.75,SSW,202,0.0,3.0,96,0.00,,---,0.67,VWS V14.00,2013-07-11 01:30:00,
2013-07-10 21:45:00,66.2,65.0,29.74,SSW,202,0.0,5.0,96,0.00,,---,0.67,VWS V14.00,2013-07-11 01:45:00,
2013-07-10 22:00:00,66.0,64.8,29.75,SSW,202,0.0,1.0,96,0.00,,---,0.67,VWS V14.00,2013-07-11 02:00:00,
2013-07-10 22:15:00,65.9,64.7,29.75,SW,225,0.0,1.0,96,0.00,,---,0.67,VWS V14.00,2013-07-11 02:15:00,
2013-07-10 22:30:00,65.7,64.5,29.76,SW,225,0.0,1.0,96,0.00,,---,0.67,VWS V14.00,2013-07-11 02:30:00,
2013-07-10 22:45:00,65.3,64.1,29.76,SW,225,0.0,1.0,96,0.00,,---,0.67,VWS V14.00,2013-07-11 02:45:00,
2013-07-10 23:00:00,65.0,63.8,29.76,SW,225,0.0,0.0,96,0.00,,---,0.67,VWS V14.00,2013-07-11 03:00:00,
2013-07-10 23:15:00,64.9,63.7,29.76,SW,225,0.0,1.0,96,0.00,,---,0.67,VWS V14.00,2013-07-11 03:15:00,
2013-07-10 23:30:00,65.2,64.3,29.77,SW,225,0.0,1.0,97,0.00,,---,0.67,VWS V14.00,2013-07-11 03:30:00,
2013-07-10 23:45:00,65.2,64.3,29.77,SW,225,0.0,1.0,97,0.00,,---,0.67,VWS V14.00,2013-07-11 03:45:00,